Temperature
14 14 13 13 13 13 12 12 12 12 11 11 11 11 11 11 11 11 11 11 11 11 11 11 12 12 12 12 12 12 12 12 12 13 13 14 14 14 15 15 15 15 16
14 14 13 13 13 13 13 13 12 12 12 12 11 11 11 11 11 11 11 11 11 11 11 11 11 12 12 12 12 12 12 12 12 12 13 13 14 14 14 15 15 15 15
15 14 14 14 13 13 13 13 13 12 12 12 12 12 11 11 11 11 11 11 11 11 11 11 11 11 11 11 11 12 12 12 12 12 12 13 13 13 14 14 14 15 15
15 15 14 14 14 14 14 13 13 13 13 12 12 12 12 11 11 11 11 11 11 11 11 11 11 11 11 11 11 11 11 11 11 11 12 12 13 13 13 14 14 14 15
15 15 15 15 14 14 14 14 13 13 13 13 12 12 12 12 12 11 11 11 11 11 11 11 11 11 11 11 11 11 11 11 11 11 12 12 12 12 13 13 13 14 14
16 16 15 15 15 15 14 14 14 14 13 13 13 13 12 12 12 12 12 11 11 11 11 11 11 11 11 11 11 11 11 11 11 11 12 12 12 12 12 12 13 13 13
16 16 16 15 15 15 15 14 14 14 14 13 13 13 13 13 12 12 12 12 12 11 11 11 11 11 11 11 11 11 11 11 11 11 11 12 12 12 12 12 12 12 13
16 16 16 16 15 15 15 15 14 14 14 14 13 13 13 13 13 12 12 12 12 12 11 11 11 11 11 11 11 11 11 11 11 11 11 11 12 12 12 12 12 12 13
17 16 16 16 16 15 15 15 15 14 14 14 14 13 13 13 13 13 12 12 12 12 12 11 11 11 11 11 11 11 11 11 11 11 11 11 11 11 11 11 12 12 12
17 16 16 16 16 15 15 15 15 14 14 14 14 14 14 13 13 13 13 12 12 12 12 11 11 11 11 11 11 11 11 11 11 11 11 12 12 11 11 11 11 11 11
17 16 16 16 16 15 15 15 15 14 14 14 14 14 14 14 13 13 13 13 12 12 12 12 11 11 11 11 11 11 11 11 11 11 12 12 12 12 12 12 11 11 11
17 16 16 16 15 15 15 15 14 14 14 14 14 14 14 14 13 13 13 13 13 12 12 12 11 11 11 11 11 11 11 11 11 11 11 11 11 11 11 11 11 11 11
16 16 16 16 15 15 15 15 14 14 14 13 13 13 13 13 13 13 13 13 13 12 12 12 11 11 11 11 11 11 11 11 11 11 11 11 11 11 11 11 11 11 11
16 16 16 15 15 15 14 14 13 13 13 13 13 13 13 13 13 13 13 13 12 12 12 12 11 11 11 11 11 11 11 10 10 11 11 11 11 11 11 11 11 11 11
16 16 15 15 14 14 13 13 12 12 12 12 12 12 12 12 12 12 12 12 12 12 12 12 11 11 11 11 11 11 11 10 10 10 10 11 11 11 11 11 11 11 11
16 15 15 14 13 13 12 12 11 11 11 11 11 11 11 11 11 11 12 12 12 12 11 11 11 11 10 10 10 10 10 10 10 10 10 10 10 10 10 10 10 10 10
15 14 14 13 13 12 12 11 10 10 10 10 10 10 10 10 11 11 11 11 11 11 11 11 10 10 10 10 10 10 10 10 10 10 10 10 10 10 10 10 10 10 10
14 14 13 12 12 11 11 10 10 10 9 9 9 9 9 10 10 10 10 10 10 10 10 10 9 9 9 9 9 9 9 9 9 9 9 9 9 9 10 10 10 10 10
13 13 12 12 11 10 10 9 9 9 9 8 8 8 8 8 9 9 9 9 9 9 8 8 8 8 8 8 8 8 8 8 8 8 9 9 9 9 9 9 9 9 9
12 12 11 10 10 9 9 9 8 8 8 8 8 8 8 8 8 8 8 8 7 7 7 7 7 7 7 7 7 7 7 7 7 8 8 8 8 8 8 8 8 9 9
11 11 10 9 9 8 8 8 7 7 7 7 7 6 6 7 7 6 6 6 6 6 6 6 6 6 6 6 6 6 6 6 6 6 6 7 7 7 7 8 8 8 8
10 10 9 8 8 7 7 7 6 6 6 6 6 5 5 5 5 5 5 5 5 5 5 5 5 5 5 5 5 5 5 5 5 5 5 6 6 6 6 7 7 7 7
9 8 8 7 7 7 6 6 6 6 5 5 5 5 5 5 4 4 4 4 4 4 4 4 4 4 4 4 4 4 4 4 4 4 4 4 5 5 5 5 5 6 6
8 8 7 7 6 6 6 5 5 5 5 4 4 4 4 4 4 3 3 3 3 3 3 3 3 3 3 3 3 3 3 3 3 3 3 3 4 4 4 4 4 5 5
7 7 7 6 6 5 5 5 5 4 4 4 4 3 3 3 3 3 3 3 3 3 2 2 2 2 2 2 2 2 2 2 2 2 2 2 3 3 3 3 4 4 4
7 6 6 6 5 5 5 5 4 4 4 3 3 3 3 3 3 2 2 2 2 2 2 2 2 2 2 2 2 2 2 2 2 1 1 1 2 2 2 2 2 3 3
Wind_Speed
5 5 4 4 3 3 3 3 3 3 3 3 3 3 3 4 3 3 3 3 3 3 3 3 3 3 2 2 2 2 3 3 5 4 3 2 3 4 4 5 7 8 10
5 5 4 4 3 3 4 4 3 3 3 3 3 3 4 3 3 3 4 3 3 3 4 3 4 3 3 3 2 3 3 4 4 5 3 3 4 4 5 5 4 6 8
5 5 4 4 4 4 4 4 3 3 3 3 3 3 4 4 4 3 3 3 3 3 4 3 4 4 4 3 3 3 3 4 4 4 4 3 3 3 3 4 4 4 6
5 5 6 6 6 5 5 4 4 3 3 4 4 4 4 4 4 4 3 3 4 4 4 4 4 4 5 4 4 4 4 4 4 4 5 4 3 3 3 3 4 3 4
6 6 7 6 5 5 5 4 4 4 4 4 4 5 4 4 4 4 3 3 4 4 4 4 5 5 6 5 4 4 3 4 4 4 5 4 4 3 3 3 4 4 4
7 7 7 5 5 5 5 5 4 5 5 4 5 5 6 5 7 7 4 3 3 4 5 5 5 5 6 7 7 6 5 5 5 5 5 5 6 5 4 4 4 4 4
7 7 6 6 6 6 5 5 6 6 5 5 6 5 6 8 10 9 7 3 3 4 4 4 4 4 5 4 6 7 7 8 8 6 7 7 6 5 4 5 5 5 6
7 6 6 6 6 6 5 6 6 5 5 6 6 6 6 9 10 9 7 4 4 4 4 5 5 5 5 5 4 5 6 6 7 6 7 8 8 7 6 7 6 6 5
7 7 6 6 6 6 7 7 6 5 6 6 6 6 7 9 11 9 7 3 3 5 5 4 5 5 8 7 4 6 7 6 7 8 9 10 11 11 8 5 5 5 5
7 7 5 5 6 7 7 6 4 4 6 6 6 6 7 8 11 10 7 3 4 5 4 4 6 6 8 7 4 5 7 7 6 7 7 8 7 8 9 7 6 6 4
5 3 3 3 4 5 4 3 4 4 4 5 6 6 6 8 10 10 8 4 4 4 4 4 4 7 8 8 7 5 8 8 6 6 6 6 5 5 5 6 6 7 7
3 3 2 1 1 1 2 3 2 2 4 5 5 6 5 5 6 7 8 7 6 4 5 4 4 7 8 9 7 7 9 8 4 5 5 5 5 5 4 5 6 7 7
4 3 1 1 1 1 0 2 2 2 2 3 3 5 6 4 5 7 7 7 6 5 4 5 6 7 8 7 8 9 7 4 4 4 5 5 4 4 4 3 4 4 5
5 3 2 2 2 2 2 1 1 2 2 2 3 4 5 5 5 4 3 3 3 3 2 2 4 5 4 5 6 5 4 3 3 4 5 5 4 3 3 3 3 2 3
6 4 3 3 2 2 2 2 2 2 2 2 2 3 3 5 6 6 2 1 0 0 1 2 3 3 5 5 5 5 4 4 4 3 4 5 4 4 4 3 3 3 4
6 4 3 3 2 2 2 3 5 4 7 8 8 5 3 4 7 6 5 5 4 5 4 3 3 4 4 5 5 6 5 5 4 4 5 5 5 5 5 4 3 4 5
7 5 4 3 3 3 3 3 3 5 7 9 11 12 10 11 11 10 9 9 10 9 6 4 4 4 5 5 5 5 5 6 5 5 5 5 5 5 5 5 5 5 6
7 7 6 4 4 3 3 3 3 3 4 4 7 12 12 13 14 12 10 9 8 8 6 5 5 5 5 5 5 5 5 6 6 6 6 6 6 6 6 6 6 6 6
7 6 5 5 4 4 4 4 4 5 4 3 4 6 10 10 12 13 11 7 6 6 5 5 5 5 5 5 6 6 6 6 6 6 7 7 7 7 7 7 7 8 7
7 11 9 6 5 5 4 4 4 4 4 4 4 4 5 5 6 7 7 6 5 5 4 4 4 5 5 5 5 5 6 6 7 6 7 7 7 7 8 9 8 7 7
7 8 11 7 5 5 4 4 4 4 4 3 3 4 6 4 4 4 4 4 4 4 4 4 4 4 4 4 4 5 6 6 6 6 7 7 8 8 8 8 9 9 8
7 6 6 6 5 4 4 4 3 3 3 3 2 3 6 4 3 3 3 3 3 3 3 3 3 3 3 4 4 4 5 6 6 6 7 7 7 8 8 8 8 9 9
8 8 6 5 5 6 5 3 3 2 2 1 1 2 2 2 2 2 3 3 3 3 3 3 3 4 4 4 4 4 5 6 6 7 7 8 8 8 8 9 11 11 10
8 8 7 6 5 4 4 3 2 2 1 0 0 1 1 2 2 3 3 3 3 4 4 4 4 5 7 6 6 7 7 8 9 7 8 8 9 9 9 9 10 11 11
8 7 7 6 5 5 4 3 2 2 1 1 1 1 1 2 2 3 3 3 4 4 5 5 5 5 7 9 9 10 13 15 14 12 8 8 9 10 10 11 10 11 11
7 7 6 5 5 5 4 4 3 2 2 2 2 2 2 2 3 3 4 4 4 5 5 5 7 9 10 10 12 14 16 17 17 17 12 8 10 10 11 10 13 12 12
Wind_Direction
226 227 239 252 257 261 261 269 278 289 300 311 319 327 333 336 338 341 329 334 339 329 328 321 311 302 294 285 262 240 231 222 244 261 249 258 261 262 265 251 248 241 241
219 217 229 245 254 259 265 274 277 283 289 292 306 316 318 321 325 325 322 331 331 323 319 320 312 315 302 288 274 258 245 232 233 257 262 256 252 256 257 256 252 244 239
205 209 226 239 244 254 263 273 273 275 286 295 297 299 303 306 309 306 297 302 305 301 301 300 298 302 293 284 277 267 260 253 234 244 260 249 255 254 257 259 251 249 247
199 207 224 235 238 247 257 264 264 266 277 286 288 287 288 291 291 290 288 292 297 296 292 286 284 277 271 275 275 268 260 256 246 247 257 258 254 253 242 251 260 246 252
198 213 229 236 237 245 253 258 261 265 268 274 285 293 293 286 277 273 270 274 284 296 299 292 286 286 280 269 264 262 256 254 254 250 254 258 258 250 246 240 253 264 256
204 222 230 230 236 242 248 254 261 266 271 273 275 282 290 286 293 293 278 259 273 282 292 298 298 298 309 311 307 295 275 260 256 254 256 254 258 248 245 246 249 256 262
212 226 227 227 237 244 248 253 257 261 264 269 271 272 277 282 290 295 289 262 261 270 276 289 302 306 314 301 304 309 301 289 272 258 258 257 255 242 239 247 242 244 248
215 227 229 226 239 247 246 251 255 254 256 262 268 270 273 280 287 286 285 272 262 269 268 269 277 293 297 293 290 297 290 284 275 265 253 257 253 248 238 245 252 256 262
218 229 229 223 234 243 247 253 252 249 256 254 259 265 268 278 285 284 277 250 263 274 273 267 265 278 296 302 295 294 295 289 278 271 269 269 268 261 249 244 243 245 258
221 228 228 220 226 240 249 256 251 242 255 265 267 261 258 268 281 283 274 227 255 273 282 277 273 277 293 301 285 284 292 292 295 299 294 288 277 269 256 236 235 242 246
211 206 210 217 226 240 256 262 265 264 271 275 278 278 268 265 279 282 272 221 230 257 274 281 279 291 298 302 297 272 276 286 289 287 289 289 283 267 255 240 232 233 238
160 166 189 220 241 246 262 287 288 283 288 293 296 300 290 278 272 281 277 251 223 222 251 263 277 298 304 307 303 293 296 298 287 287 288 287 285 277 265 250 242 237 238
140 149 150 93 35 359 304 310 323 328 311 306 307 305 308 308 298 293 290 280 251 224 242 261 287 308 318 318 315 317 318 306 296 292 292 289 280 275 276 267 250 241 245
141 141 122 99 60 40 43 43 37 3 344 333 327 314 312 318 318 316 304 301 294 260 274 321 337 342 339 323 324 328 325 301 294 290 294 291 289 287 286 279 267 263 262
131 124 111 98 85 56 50 61 67 49 66 35 330 312 322 324 322 320 312 310 267 171 92 48 26 8 1 354 345 336 332 331 320 303 299 301 302 299 292 280 265 262 262
131 126 118 106 87 76 72 52 43 54 49 46 38 31 359 347 343 6 34 43 54 89 88 57 30 13 358 348 343 340 337 337 328 317 312 307 306 304 300 289 267 265 268
135 133 121 111 102 89 81 83 48 18 25 31 32 35 36 31 34 41 53 59 58 66 64 50 31 11 360 352 345 341 339 336 334 331 326 321 317 312 306 300 292 284 278
128 129 125 116 109 99 90 82 77 63 35 8 10 24 32 39 41 41 47 62 54 50 48 40 25 9 1 355 351 350 347 348 351 347 342 338 332 325 317 310 303 295 290
128 125 119 113 105 99 92 85 78 72 62 33 15 15 23 34 43 43 50 57 57 47 39 32 21 12 6 1 358 357 358 356 352 350 347 343 339 334 325 318 311 300 290
133 135 129 119 108 100 95 92 85 78 68 51 36 17 8 32 44 37 41 44 46 40 33 25 13 9 6 5 3 2 2 360 357 353 346 341 336 331 327 323 319 313 303
132 136 132 120 115 114 110 106 101 94 83 65 37 29 49 56 48 38 33 29 27 21 15 12 5 359 359 359 359 359 359 355 351 347 342 338 335 332 327 321 319 316 311
134 131 131 130 126 123 120 117 112 103 91 77 37 22 36 47 40 33 21 11 3 360 354 348 342 336 336 340 340 342 344 340 337 336 334 331 330 329 328 325 322 320 318
137 135 131 130 130 131 124 120 119 116 103 78 45 23 18 17 9 4 354 345 343 340 338 339 333 327 323 321 319 318 319 317 315 317 321 323 323 324 324 323 320 318 316
141 142 141 140 137 137 140 142 143 144 145 149 0 344 335 333 330 330 327 323 326 323 322 322 315 314 315 317 315 311 305 304 307 305 306 308 312 312 312 312 313 313 313
144 146 148 150 151 153 155 158 165 174 187 219 257 287 303 310 312 313 313 313 316 314 314 314 311 311 310 310 312 312 312 313 313 310 301 299 300 302 303 304 304 306 306
149 150 152 153 157 161 165 172 182 191 205 227 248 264 277 288 294 300 306 309 310 306 305 305 306 307 307 309 308 310 313 313 313 312 308 297 293 292 295 296 298 299 299
Height
1508 1507 1507 1506 1505 1504 1503 1501 1500 1498 1497 1496 1494 1493 1491 1490 1489 1488 1486 1485 1484 1484 1483 1483 1482 1482 1482 1482 1483 1483 1484 1484 1484 1484 1485 1486 1487 1488 1489 1491 1492 1494 1496
1506 1506 1505 1505 1504 1503 1501 1500 1499 1497 1496 1495 1493 1492 1490 1489 1488 1487 1485 1484 1483 1482 1481 1481 1480 1480 1480 1480 1480 1480 1480 1481 1481 1480 1481 1482 1483 1484 1485 1485 1487 1488 1490
1504 1504 1504 1503 1502 1501 1500 1499 1498 1496 1495 1494 1492 1491 1490 1488 1487 1486 1484 1483 1482 1481 1480 1479 1478 1478 1477 1477 1477 1477 1477 1477 1477 1477 1477 1478 1478 1479 1480 1481 1482 1483 1484
1502 1502 1502 1502 1501 1500 1499 1498 1497 1496 1494 1493 1492 1490 1489 1488 1486 1485 1483 1482 1480 1479 1478 1477 1476 1475 1475 1474 1474 1474 1474 1474 1473 1473 1473 1473 1474 1474 1475 1476 1476 1478 1479
1500 1500 1500 1500 1500 1499 1498 1497 1496 1495 1494 1492 1491 1490 1488 1487 1485 1484 1482 1481 1479 1478 1477 1475 1474 1473 1473 1472 1471 1471 1471 1470 1470 1469 1469 1469 1469 1470 1471 1471 1472 1472 1473
1497 1498 1498 1498 1498 1497 1497 1496 1495 1494 1493 1492 1490 1489 1487 1486 1484 1482 1481 1479 1478 1476 1475 1474 1473 1471 1470 1469 1469 1468 1468 1467 1466 1466 1465 1465 1465 1466 1467 1467 1467 1468 1468
1495 1496 1496 1496 1496 1496 1495 1494 1493 1493 1491 1490 1489 1487 1486 1484 1483 1481 1479 1478 1476 1475 1473 1472 1471 1469 1468 1467 1466 1465 1464 1463 1463 1463 1462 1461 1462 1462 1462 1462 1462 1463 1463
1492 1493 1494 1494 1494 1493 1493 1492 1491 1490 1489 1488 1487 1485 1484 1483 1481 1479 1478 1476 1475 1473 1472 1470 1468 1467 1466 1464 1463 1462 1461 1460 1459 1459 1458 1457 1458 1458 1458 1458 1458 1458 1458
1489 1490 1491 1491 1491 1491 1490 1489 1488 1487 1486 1485 1484 1483 1481 1480 1479 1477 1476 1474 1473 1471 1470 1468 1466 1465 1463 1462 1460 1459 1457 1457 1456 1455 1454 1453 1453 1453 1453 1453 1453 1453 1452
1487 1487 1488 1488 1488 1487 1487 1486 1485 1484 1483 1482 1480 1479 1478 1477 1476 1475 1473 1471 1470 1469 1467 1466 1464 1463 1461 1460 1458 1456 1454 1453 1452 1451 1450 1449 1449 1448 1448 1448 1448 1448 1447
1484 1484 1485 1485 1484 1484 1483 1482 1481 1480 1479 1478 1476 1475 1474 1473 1472 1471 1470 1468 1467 1466 1465 1464 1462 1461 1459 1458 1456 1454 1452 1451 1449 1448 1446 1445 1445 1444 1444 1443 1443 1443 1443
1480 1481 1481 1481 1481 1480 1479 1478 1477 1476 1474 1473 1472 1471 1470 1469 1468 1467 1466 1465 1464 1463 1462 1461 1460 1458 1457 1455 1453 1452 1450 1448 1446 1445 1443 1442 1441 1440 1439 1439 1438 1438 1438
1477 1477 1478 1477 1477 1476 1475 1474 1473 1471 1470 1469 1467 1466 1466 1465 1464 1463 1462 1461 1460 1459 1459 1458 1456 1455 1454 1452 1451 1449 1447 1446 1444 1442 1440 1439 1438 1436 1435 1435 1434 1433 1433
1473 1474 1474 1474 1473 1472 1471 1470 1469 1467 1466 1465 1463 1462 1461 1461 1460 1459 1459 1458 1457 1456 1455 1454 1453 1452 1451 1450 1448 1447 1445 1443 1442 1440 1438 1436 1435 1433 1432 1431 1430 1429 1428
1469 1470 1470 1470 1470 1469 1468 1467 1465 1464 1463 1462 1460 1459 1458 1457 1456 1456 1455 1454 1453 1453 1452 1451 1450 1449 1448 1447 1446 1444 1443 1441 1439 1437 1436 1434 1432 1431 1430 1428 1427 1426 1425
1466 1466 1467 1467 1466 1466 1465 1464 1463 1462 1461 1460 1458 1457 1455 1455 1453 1453 1452 1451 1450 1449 1449 1448 1447 1446 1445 1444 1442 1441 1440 1438 1437 1435 1433 1432 1430 1428 1427 1426 1424 1423 1421
1462 1463 1463 1463 1463 1463 1462 1462 1461 1461 1460 1458 1457 1455 1454 1452 1451 1450 1449 1448 1447 1447 1446 1445 1445 1444 1443 1441 1440 1439 1437 1436 1435 1433 1431 1429 1428 1426 1424 1423 1421 1419 1418
1459 1459 1460 1460 1460 1460 1460 1459 1459 1458 1458 1456 1455 1454 1452 1451 1450 1448 1447 1447 1445 1445 1444 1443 1443 1442 1441 1439 1438 1437 1435 1434 1432 1430 1429 1427 1425 1423 1421 1419 1417 1416 1414
1455 1456 1457 1457 1457 1458 1458 1457 1457 1457 1456 1455 1454 1453 1452 1451 1449 1448 1447 1445 1444 1444 1443 1442 1441 1440 1439 1437 1436 1435 1433 1431 1429 1428 1426 1424 1422 1420 1418 1416 1414 1412 1410
1452 1453 1454 1455 1455 1456 1456 1456 1456 1455 1455 1454 1453 1452 1452 1450 1449 1447 1446 1445 1444 1443 1442 1441 1440 1439 1437 1436 1434 1432 1431 1429 1427 1424 1422 1420 1418 1416 1414 1412 1410 1408 1406
1448 1450 1451 1453 1453 1454 1455 1455 1455 1454 1454 1453 1453 1452 1451 1450 1448 1447 1446 1445 1444 1443 1442 1440 1439 1437 1436 1434 1432 1430 1428 1426 1424 1421 1419 1417 1415 1412 1410 1408 1406 1404 1402
1446 1447 1449 1451 1452 1453 1453 1454 1454 1454 1453 1453 1452 1452 1451 1449 1448 1447 1446 1445 1443 1442 1441 1439 1437 1436 1434 1432 1429 1427 1425 1423 1420 1418 1416 1413 1411 1408 1406 1403 1401 1399 1397
1443 1445 1447 1449 1450 1451 1452 1452 1453 1453 1452 1452 1452 1451 1450 1449 1448 1446 1445 1444 1443 1441 1439 1437 1435 1433 1431 1429 1427 1425 1422 1419 1417 1414 1412 1409 1406 1404 1401 1399 1396 1394 1392
1441 1443 1445 1446 1448 1449 1450 1451 1451 1451 1451 1451 1450 1450 1449 1448 1446 1445 1444 1442 1440 1439 1437 1435 1433 1430 1428 1426 1423 1421 1418 1416 1413 1410 1407 1404 1402 1399 1396 1393 1391 1388 1386
1438 1441 1443 1444 1446 1447 1448 1449 1449 1449 1449 1449 1448 1448 1447 1446 1444 1443 1441 1439 1437 1435 1433 1431 1429 1426 1424 1421 1418 1416 1413 1410 1408 1405 1402 1399 1396 1393 1390 1387 1385 1382 1379
1436 1438 1440 1442 1444 1445 1446 1447 1447 1447 1447 1446 1446 1445 1444 1443 1441 1440 1438 1436 1433 1431 1429 1426 1424 1421 1418 1415 1412 1410 1407 1404 1401 1398 1395 1392 1389 1386 1383 1380 1378 1375 1372